TimeMDT,TemperatureF,Dew PointF,Humidity,Sea Level PressureIn,VisibilityMPH,Wind Direction,Wind SpeedMPH,Gust SpeedMPH,PrecipitationIn,Events,Conditions,WindDirDegrees,DateUTC
12:51 AM,30.0,26.1,85,30.00,-9999.0,Calm,Calm,-,N/A,,Unknown,0,2013-06-21 06:51:00
1:51 AM,28.9,26.1,89,29.99,-9999.0,South,3.5,-,N/A,,Unknown,180,2013-06-21 07:51:00
2:51 AM,30.9,28.0,89,29.96,-9999.0,Calm,Calm,-,N/A,,Unknown,0,2013-06-21 08:51:00
3:51 AM,28.9,26.1,89,29.96,-9999.0,Calm,Calm,-,N/A,,Unknown,0,2013-06-21 09:51:00
4:51 AM,28.0,26.1,92,29.97,-9999.0,Calm,Calm,-,N/A,,Unknown,0,2013-06-21 10:51:00
5:51 AM,30.0,28.0,92,29.96,-9999.0,Calm,Calm,-,N/A,,Unknown,0,2013-06-21 11:51:00
6:51 AM,30.0,28.0,92,29.98,-9999.0,Calm,Calm,-,N/A,,Unknown,0,2013-06-21 12:51:00
7:51 AM,35.1,28.9,78,29.99,-9999.0,Calm,Calm,-,N/A,,Unknown,0,2013-06-21 13:51:00
8:51 AM,43.0,30.9,62,29.94,-9999.0,East,3.5,-,N/A,,Unknown,80,2013-06-21 14:51:00
9:51 AM,48.9,24.1,38,29.94,-9999.0,Variable,4.6,-,N/A,,Unknown,0,2013-06-21 15:51:00
10:51 AM,51.1,21.0,31,29.95,-9999.0,Variable,4.6,-,N/A,,Unknown,0,2013-06-21 16:51:00
11:51 AM,53.1,24.1,32,29.94,-9999.0,Variable,4.6,-,N/A,,Unknown,0,2013-06-21 17:51:00
12:51 PM,55.0,21.9,28,29.94,-9999.0,Variable,3.5,-,N/A,,Unknown,0,2013-06-21 18:51:00
1:51 PM,54.0,25.0,33,29.95,-9999.0,NNW,10.4,-,N/A,,Unknown,330,2013-06-21 19:51:00
2:51 PM,55.9,25.0,30,29.93,-9999.0,NNE,3.5,-,N/A,,Unknown,20,2013-06-21 20:51:00
3:51 PM,54.0,27.0,35,29.95,-9999.0,NNE,4.6,-,N/A,,Unknown,20,2013-06-21 21:51:00
4:51 PM,51.1,30.9,46,29.99,-9999.0,SW,12.7,18.4,N/A,,Unknown,220,2013-06-21 22:51:00
5:51 PM,46.9,33.1,59,30.02,-9999.0,South,10.4,16.1,N/A,,Unknown,190,2013-06-21 23:51:00
6:51 PM,48.0,32.0,54,30.03,-9999.0,North,4.6,-,N/A,,Unknown,10,2013-06-22 00:51:00
7:51 PM,46.9,33.1,59,30.02,-9999.0,Calm,Calm,-,N/A,,Unknown,0,2013-06-22 01:51:00
8:51 PM,44.1,35.1,71,30.00,-9999.0,NNW,5.8,-,N/A,,Unknown,340,2013-06-22 02:51:00
9:51 PM,42.1,35.1,76,29.99,-9999.0,North,3.5,-,N/A,,Unknown,350,2013-06-22 03:51:00
10:51 PM,41.0,35.1,79,29.98,-9999.0,Calm,Calm,-,N/A,,Unknown,0,2013-06-22 04:51:00
11:51 PM,39.0,35.1,86,29.97,-9999.0,Calm,Calm,-,N/A,,Unknown,0,2013-06-22 05:51:00